Home > Weather > Anderson > Past weeks

Flag for USA Weather for the Past 2 Weeks in Anderson, South Carolina, USA

Now
52 °F

Sunny.


Feels Like: 52 °F
Forecast: 49 / 73 °F
Wind: 3 mph from South

Location: Anderson County Airport

Current Time: May 6, 2016 at 9:07:07 AM

Latest Report: May 6, 2016 at 7:56 AM


Visibility: 10 mi

Pressure: 29.82 "Hg

Humidity: 77%

Dew Point: 45 °F

Location of AndersonLocation

Historic Weather in Anderson — Graph

°F

Anderson Temperature Yesterday

Maximum temperature yesterday: 65 °F (at 12:56 PM)
Minimum temperature yesterday: 50 °F (at 5:56 AM)
Average temperature yesterday: 58 °F

High & Low Weather Summary for the Past Weeks

 TemperatureHumidityPressure
High87 °F (Apr 29, 2:56 PM)100% (Apr 23, 7:00 AM)30.15 "Hg (Apr 23, 7:00 AM)
Low48 °F (May 6, 6:56 AM)24% (Apr 29, 4:56 PM)29.62 "Hg (May 5, 3:56 AM)
Average68 °F66%29.91 "Hg
* Reported Apr 21 7:56 AM — May 6 7:56 AM, Anderson, Weather by CustomWeather, © 2016

Note: Actual official high and low records may vary slightly from our data, if they occured in-between our weather recording intervals... More about our weather records

Advertising

Anderson Weather History for the Previous 24 Hours

Scroll right to see more
 ConditionsComfort  
Time TempWeatherWind HumidityBarometerVisibility
7:56 AM
Fri, May 6
52 °FSunny.3 mph77%29.82 "Hg10 mi
6:56 AM48 °FClear.3 mph80%29.80 "Hg10 mi
5:56 AM49 °FClear.6 mph74%29.78 "Hg10 mi
4:56 AM49 °FClear.8 mph74%29.77 "Hg10 mi
3:56 AM50 °FPassing clouds.5 mph68%29.77 "Hg10 mi
2:56 AM51 °FPassing clouds.8 mph63%29.78 "Hg10 mi
1:56 AM51 °FPassing clouds.8 mph66%29.78 "Hg10 mi
12:56 AM52 °FPassing clouds.8 mph64%29.79 "Hg10 mi
11:56 PM
Thu, May 5
53 °FPassing clouds.5 mph64%29.78 "Hg10 mi
10:56 PM53 °FClear.7 mph61%29.78 "Hg10 mi
9:56 PM55 °FClear.12 mph55%29.76 "Hg10 mi
8:56 PM57 °FSunny.10 mph51%29.74 "Hg10 mi
7:56 PM59 °FSunny.12 mph44%29.71 "Hg10 mi
6:56 PM62 °FOvercast.13 mph38%29.69 "Hg10 mi
5:56 PM63 °FPartly sunny.13 mph38%29.67 "Hg10 mi
4:56 PM63 °FScattered clouds.13 mph35%29.67 "Hg10 mi
3:56 PM62 °FBroken clouds.15 mph38%29.67 "Hg10 mi
2:56 PM65 °FScattered clouds.22 mph33%29.68 "Hg10 mi
1:56 PM65 °FBroken clouds.22 mph34%29.67 "Hg10 mi
12:56 PM65 °FScattered clouds.21 mph33%29.67 "Hg10 mi
11:56 AM63 °FPassing clouds.18 mph35%29.68 "Hg10 mi
10:56 AM62 °FPartly sunny.16 mph39%29.68 "Hg10 mi
9:56 AM60 °FSunny.14 mph44%29.67 "Hg10 mi
Weather by CustomWeather, © 2016

See weather overviewHow to use our weather pages